Tiempo cada hora Murshidabad

Hoy, 28 Octubre, Miércoles

Tiempo Temperatura Precipitaciones Viento Presión Humedad
00:00 +25°C° 0 mm 2 mps 755 mmHg 49%
01:00 +24°C° 0 mm 2 mps 755 mmHg 50%
02:00 +24°C° 0 mm 2 mps 755 mmHg 51%
03:00 +24°C° 0 mm 2 mps 755 mmHg 52%
04:00 +23°C° 0 mm 2 mps 755 mmHg 53%
05:00 +23°C° 0 mm 2 mps 755 mmHg 53%
06:00 +23°C° 0 mm 2 mps 755 mmHg 54%
07:00 +24°C° 0 mm 2 mps 756 mmHg 51%
08:00 +26°C° 0 mm 2 mps 757 mmHg 48%
09:00 +28°C° 0 mm 2 mps 757 mmHg 45%
10:00 +29°C° 0 mm 3 mps 757 mmHg 42%
11:00 +31°C° 0 mm 3 mps 756 mmHg 39%
12:00 +33°C° 0 mm 3 mps 756 mmHg 36%
13:00 +33°C° 0 mm 3 mps 755 mmHg 37%
14:00 +34°C° 0 mm 3 mps 754 mmHg 37%
15:00 +34°C° 0 mm 3 mps 754 mmHg 38%
16:00 +31°C° 0 mm 2 mps 754 mmHg 43%
17:00 +30°C° 0 mm 2 mps 754 mmHg 47%
18:00 +28°C° 0 mm 2 mps 754 mmHg 52%
19:00 +27°C° 0 mm 2 mps 754 mmHg 53%
20:00 +27°C° 0 mm 2 mps 755 mmHg 53%
21:00 +26°C° 0 mm 2 mps 756 mmHg 54%
22:00 +26°C° 0 mm 2 mps 756 mmHg 53%
23:00 +25°C° 0 mm 2 mps 756 mmHg 53%

Mañana, 29 Octubre, Jueves

Tiempo Temperatura Precipitaciones Viento Presión Humedad
00:00 +25°C° 0 mm 2 mps 756 mmHg 52%
01:00 +25°C° 0 mm 2 mps 756 mmHg 52%
02:00 +24°C° 0 mm 2 mps 755 mmHg 53%
03:00 +24°C° 0 mm 2 mps 755 mmHg 53%
04:00 +24°C° 0 mm 2 mps 755 mmHg 55%
05:00 +23°C° 0 mm 2 mps 755 mmHg 56%
06:00 +22°C° 0 mm 3 mps 755 mmHg 57%
07:00 +25°C° 0 mm 3 mps 756 mmHg 56%
08:00 +26°C° 0 mm 3 mps 757 mmHg 55%
09:00 +28°C° 0 mm 3 mps 757 mmHg 55%
10:00 +30°C° 0 mm 3 mps 757 mmHg 52%
11:00 +31°C° 0 mm 3 mps 756 mmHg 49%
12:00 +34°C° 0 mm 4 mps 756 mmHg 45%
13:00 +34°C° 0 mm 4 mps 755 mmHg 45%
14:00 +34°C° 0 mm 4 mps 754 mmHg 45%
15:00 +34°C° 0 mm 4 mps 754 mmHg 44%
16:00 +33°C° 0 mm 3 mps 754 mmHg 49%
17:00 +30°C° 0 mm 3 mps 754 mmHg 54%
18:00 +29°C° 0 mm 2 mps 754 mmHg 58%
19:00 +28°C° 0 mm 3 mps 754 mmHg 58%
20:00 +27°C° 0 mm 3 mps 755 mmHg 58%
21:00 +27°C° 0 mm 3 mps 755 mmHg 58%
22:00 +26°C° 0 mm 3 mps 755 mmHg 56%
23:00 +26°C° 0 mm 3 mps 755 mmHg 54%

Pasado mañana, 30 Octubre, Viernes

Tiempo Temperatura Precipitaciones Viento Presión Humedad
00:00 +25°C° 0 mm 3 mps 755 mmHg 53%
01:00 +25°C° 0 mm 3 mps 755 mmHg 52%
02:00 +25°C° 0 mm 3 mps 755 mmHg 52%
03:00 +24°C° 0 mm 3 mps 755 mmHg 51%
04:00 +24°C° 0 mm 3 mps 755 mmHg 51%
05:00 +24°C° 0 mm 3 mps 755 mmHg 51%
06:00 +22°C° 0 mm 3 mps 755 mmHg 51%
07:00 +25°C° 0 mm 3 mps 756 mmHg 49%
08:00 +26°C° 0 mm 4 mps 756 mmHg 48%
09:00 +28°C° 0 mm 4 mps 757 mmHg 46%
10:00 +29°C° 0 mm 4 mps 756 mmHg 44%
11:00 +32°C° 0 mm 4 mps 756 mmHg 42%
12:00 +33°C° 0 mm 4 mps 756 mmHg 40%
13:00 +34°C° 0 mm 4 mps 755 mmHg 41%
14:00 +34°C° 0 mm 4 mps 754 mmHg 42%
15:00 +34°C° 0 mm 4 mps 754 mmHg 43%
16:00 +32°C° 0 mm 4 mps 754 mmHg 47%
17:00 +30°C° 0 mm 3 mps 754 mmHg 51%
18:00 +28°C° 0 mm 3 mps 753 mmHg 56%
19:00 +28°C° 0 mm 3 mps 754 mmHg 56%
20:00 +27°C° 0 mm 3 mps 755 mmHg 57%
21:00 +27°C° 0 mm 3 mps 755 mmHg 57%
22:00 +26°C° 0 mm 3 mps 755 mmHg 57%
23:00 +26°C° 0 mm 3 mps 755 mmHg 58%

31 Octubre, Sábado

Tiempo Temperatura Precipitaciones Viento Presión Humedad
00:00 +25°C° 0 mm 3 mps 755 mmHg 58%
01:00 +25°C° 0 mm 3 mps 755 mmHg 58%
02:00 +25°C° 0 mm 2 mps 755 mmHg 58%
03:00 +24°C° 0 mm 2 mps 755 mmHg 59%
04:00 +24°C° 0 mm 2 mps 755 mmHg 59%
05:00 +24°C° 0 mm 2 mps 755 mmHg 59%
06:00 +24°C° 0 mm 2 mps 755 mmHg 60%
07:00 +25°C° 0 mm 2 mps 756 mmHg 56%
08:00 +27°C° 0 mm 3 mps 756 mmHg 53%
09:00 +28°C° 0 mm 3 mps 757 mmHg 50%
10:00 +30°C° 0 mm 3 mps 757 mmHg 48%
11:00 +31°C° 0 mm 3 mps 756 mmHg 45%
12:00 +34°C° 0 mm 3 mps 756 mmHg 43%
13:00 +34°C° 0 mm 3 mps 755 mmHg 42%
14:00 +34°C° 0 mm 2 mps 755 mmHg 42%
15:00 +35°C° 0 mm 2 mps 754 mmHg 42%
16:00 +32°C° 0 mm 2 mps 754 mmHg 46%
17:00 +31°C° 0 mm 1 mps 754 mmHg 50%
18:00 +30°C° 0 mm 1 mps 754 mmHg 54%
19:00 +29°C° 0 mm 1 mps 755 mmHg 55%
20:00 +29°C° 0 mm 1 mps 755 mmHg 56%
21:00 +28°C° 0 mm 1 mps 756 mmHg 57%
22:00 +28°C° 0 mm 1 mps 756 mmHg 58%
23:00 +27°C° 0 mm 2 mps 756 mmHg 59%

1 Noviembre, Domingo

Tiempo Temperatura Precipitaciones Viento Presión Humedad
00:00 +27°C° 0 mm 2 mps 756 mmHg 59%
01:00 +27°C° 0 mm 2 mps 756 mmHg 60%
02:00 +26°C° 0 mm 2 mps 755 mmHg 61%
03:00 +26°C° 0 mm 2 mps 755 mmHg 62%
04:00 +26°C° 0 mm 1 mps 755 mmHg 63%
05:00 +25°C° 0 mm 1 mps 755 mmHg 65%
06:00 +25°C° 0 mm 1 mps 755 mmHg 66%
07:00 +26°C° 0 mm 2 mps 756 mmHg 64%
08:00 +28°C° 0 mm 2 mps 757 mmHg 62%
09:00 +29°C° 0 mm 3 mps 758 mmHg 60%
10:00 +30°C° 0 mm 3 mps 757 mmHg 58%
11:00 +33°C° 0 mm 3 mps 757 mmHg 55%
12:00 +34°C° 0 mm 3 mps 756 mmHg 53%
13:00 +34°C° 0 mm 2 mps 756 mmHg 53%
14:00 +35°C° 0 mm 2 mps 755 mmHg 52%
15:00 +35°C° 0 mm 2 mps 754 mmHg 52%
16:00 +34°C° 0 mm 2 mps 754 mmHg 57%
17:00 +31°C° 0 mm 2 mps 754 mmHg 61%
18:00 +30°C° 0 mm 2 mps 754 mmHg 66%
19:00 +30°C° 0 mm 2 mps 755 mmHg 68%
20:00 +29°C° 0 mm 2 mps 755 mmHg 70%
21:00 +28°C° 0 mm 2 mps 756 mmHg 73%
22:00 +28°C° 0 mm 2 mps 756 mmHg 75%
23:00 +28°C° 0 mm 1 mps 756 mmHg 78%

2 Noviembre, Lunes

Tiempo Temperatura Precipitaciones Viento Presión Humedad
00:00 +27°C° 0 mm 1 mps 756 mmHg 81%
01:00 +27°C° 0 mm 1 mps 756 mmHg 82%
02:00 +27°C° 0 mm 1 mps 756 mmHg 84%
03:00 +26°C° 0 mm 1 mps 756 mmHg 85%
04:00 +24°C° 0 mm 0 mps 756 mmHg 86%
05:00 +24°C° 0 mm 0 mps 756 mmHg 86%
06:00 +24°C° 0 mm 0 mps 756 mmHg 86%
07:00 +27°C° 0 mm 1 mps 757 mmHg 80%
08:00 +28°C° 0 mm 1 mps 757 mmHg 74%
09:00 +30°C° 0 mm 2 mps 758 mmHg 68%
10:00 +31°C° 0 mm 2 mps 757 mmHg 64%
11:00 +32°C° 0 mm 2 mps 757 mmHg 59%
12:00 +34°C° 0 mm 2 mps 757 mmHg 55%
13:00 +34°C° 0 mm 2 mps 756 mmHg 55%
14:00 +33°C° 0 mm 1 mps 755 mmHg 54%
15:00 +33°C° 0 mm 1 mps 754 mmHg 54%
16:00 +33°C° 0 mm 1 mps 754 mmHg 56%
17:00 +32°C° 0 mm 1 mps 754 mmHg 59%
18:00 +31°C° 0 mm 1 mps 754 mmHg 61%
19:00 +30°C° 0 mm 1 mps 755 mmHg 63%
20:00 +30°C° 0 mm 1 mps 755 mmHg 64%
21:00 +29°C° 0 mm 1 mps 756 mmHg 66%
22:00 +29°C° 0 mm 1 mps 756 mmHg 66%
23:00 +28°C° 0 mm 1 mps 756 mmHg 67%
Mostrar más

Necesitamos Su Consentimiento

Meteoprog y nuestros Proveedores de Servicios pueden almacenar y acceder a sus datos personales como cookies, identificadores de dispositivo u otras tecnologías similares de su dispositivo y procesar dichos datos para personalizar contenido y anuncios, además de ofrecer funciones de redes sociales y analizar el tráfico.

  • Almacenar y/o acceder a información en su dispositivo

    Se puede almacenar o acceder a cookies, identificadores de dispositivo u otra información de su dispositivo para los fines anteriormente indicados.

  • Anuncios y contenido personalizados, medición de anuncios y contenido, percepciones del público, y desarrollo de productos

    Los anuncios y el contenido pueden personalizarse en base a su perfil. Se pueden añadir más datos para personalizar mejor los anuncios y contenidos. Se puede medir el rendimiento de los anuncios y contenidos. Se puede obtener la percepción sobre el público que ha visto los anuncios y contenidos. Dichos datos pueden usarse para desarrollar o mejorar la experiencia del usuario, sistemas y software.

Al hacer clic en ‘Estoy De Acuerdo’ usted permitirá el uso de las cookies, identificadores de dispositivo, balizas web u otras tecnologías similares indicadas. Su configuración puede cambiarse desde el navegador de su dispositivo.

Para ciertos fines, los intereses legítimos pueden ser considerados por encima del consentimiento. Puede leer más sobre ello en nuestra Política de Privacidad y Cookies.